sat.trackr.live / text

‹ back to catalog

STARLINK-34248

NORAD 64928 · 2025-157AA

PAYLOAD ACTIVE UNKNOWN

§ Identity

Operator
Country
US
Launch date
2025-07-26
Launch site
AFETR
Launch vehicle
Mass (kg)
RCS (m²)

Purposes: comms

External: N2YO · Heavens-Above · Gunter

§ Orbital elements

Epoch: 2026-09-19T22:29:52.007136Z

Period
93.85 min
Inclination
53.1579°
Eccentricity
0.0001555
Mean motion
15.34403847 rev/d
Perigee alt
461.6 km
Apogee alt
463.8 km
Semi-major
6,840.8 km
B*
7.0490e-4
RAAN
160.5915°
Arg perigee
71.4849°
Mean anomaly
288.6322°
Rev number
6,590

§ Raw data

STARLINK-342481 64928U 25157AA  26262.93740749  .00023518  00000+0  70490-3 0  99912 64928  53.1579 160.5915 0001555  71.4849 288.6322 15.34403847 65907

JSON: /api/v1/satellites/64928 · /tle

For live sub-satellite position, see the globe view (requires WebGL).

§ Visibility from observer

Set your observer location to see the next 7 days of passes ≥ 10°. The values pass through the URL so the page stays shareable.

No JS? Fill the form by hand. The geolocation button needs JavaScript.